Tracking 19792 objects as of 16-Jul-2019
HD Live streaming from Space Station
objects crossing your sky now

THORAD AGENA D DEB

Track THORAD AGENA D DEB now!
10-day predictions


NORAD ID: 4950
Int'l Code: 1970-025GL
Perigee: 1,062.6 km
Apogee: 1,401.2 km
Inclination: 99.8 °
Period: 110.0 minutes
Semi major axis: 7602 km
RCS: 0.0796 m2 (small)
Launch date: April 8, 1970
Source: United States (US)
Launch site: AIR FORCE WESTERN TEST RANGE (AFWTR)

Note: This is SATELLITE DEBRIS
aabbcc
Your satellite tracking list
Your tracking list is empty




NASA's NSSDC Master Catalog

Two Line Element Set (TLE):
1  4950U 70025GL  19196.83655265 -.00000174 +00000-0 -34713-3 0  9993
2  4950 099.8203 262.1899 0222664 094.1042 331.5025 13.09583594352499
Source of the keplerian elements: AFSPC